Weather Roundup
Issued by NWS Chicago, IL

Home | Current Version | Previous Version | Graphics & Text | Print | Product List | Glossary On
Versions: 1 2 3 4 5 6 7 8 9 10 11 12 13 14 15 16 17 18 19 20 21 22 23 24 25 26 27 28 29 30 31 32 33 34 35 36 37 38 39 40 41 42 43 44 45 46 47 48 49 50
000
NZUS59 KLOT 280521
HRRLOT

CHICAGO AREA WEATHER ROUNDUP
NATIONAL WEATHER SERVICE CHICAGO/ROMEOVILLE IL
1200 AM CDT TUE APR 28 2015

NOTE: "FAIR" INDICATES FEW OR NO CLOUDS BELOW 12,000 FEET WITH NO
SIGNIFICANT WEATHER AND/OR OBSTRUCTIONS TO VISIBILITY.

* THESE STATIONS ARE NOT UNDER NWS QUALITY CONTROL. THEY ALSO MAY NOT
  REPORT WEATHER SUCH AS PRECIPITATION OR FOG.

ILZ005-006-012>014-019>023-280600-
NORTHEAST ILLINOIS

CITY           SKY/WX    TMP DP  RH WIND       PRES   REMARKS
OHARE          CLEAR     40  32  73 CALM      30.11F
MIDWAY         CLEAR     43  33  68 NW3       30.11F
AURORA         CLEAR     40  32  73 CALM      30.12R
LANSING*       CLEAR     39  32  77 CALM      30.11F
JOLIET*        CLEAR     44  34  66 CALM      30.12R
WAUKEGAN       CLEAR     36  32  85 NW3       30.11F
DUPAGE AIRPORT CLEAR     39  32  76 NE5       30.11S
WHEELING       CLEAR     39  33  79 CALM      30.13F
KANKAKEE*      CLEAR     38  35  87 CALM      30.11S
MORRIS*        CLEAR     41  34  77 CALM      30.10R
LEWIS AIRPORT* CLEAR     41  32  72 E6        30.11S
NORTHERLY IS     N/A     41  34  76 MISG        N/A
$$

WIZ051-052-058>065-066-070>072-280600-
SOUTHEAST WISCONSIN

CITY           SKY/WX    TMP DP  RH WIND       PRES   REMARKS
MILWAUKEE      CLEAR     42  30  62 N7        30.13F
KENOSHA*       CLEAR     36  31  82 N5        30.12F
RACINE*        CLEAR     41  31  67 NW7       30.13F
BURLINGTON     CLEAR     34  30  84 NW3       30.13R
WAUKESHA       CLEAR     37  32  81 CALM      30.14S
WEST BEND      CLEAR     36  32  87 CALM      30.14S
$$

INZ001>003-010>013-019-020-280600-
NORTHWEST INDIANA

CITY           SKY/WX    TMP DP  RH WIND       PRES   REMARKS
GARY*          CLEAR     39  34  84 CALM      30.11F
MICHIGAN CITY* NOT AVBL
RENSSELAER*    NOT AVBL
VALPARAISO     CLEAR     38  35  89 CALM      30.11S
$$

LMZ740>746-280600-
SOUTHERN LAKE MICHIGAN

STATION/POSITION TIME  SKY/WX   TEMP WIND        PRES    VSBY
                                AIR  DIR/SP/G
                 (UTC)          (F)  (DEG/KT/KT) (MB)    (MI)
HARRISON CRIB    0500            41  340/  7/  8   N/A
BURNHAM HARBOR   0500            41  350/  4/  7   N/A
CALUMET HARBOR   0406            41  350/  4/  5   N/A
BURNS HARBOR     0400            42  340/  5/  5 1020.3F
MICHIGAN CITY    0500            41  360/  3/  5   N/A
$$

ABBREVIATIONS USED IN REMARKS
   TC - TEMPERATURE IN CELSIUS
  WCI - WIND CHILL INDEX
   HX - HEAT INDEX
  VSB - VISIBILITY
$$


USA.gov is the U.S. government's official web portal to all federal, state and local government web resources and services.